Location: Newark
(45.4422°N, 16.2769°E)
Time: 05:57:31
(UTC+00:00)

Explorer 7 - Pass Details

Date: 22 January 2021
Orbit: 484 x 677 km, 50.3° (Epoch: 05 March)

Event Time Altitude Azimuth Distance (km) Brightness Sun altitude
Exits shadow 04:25:06 42° 202° (SSW) 736 7.3 -21.0°
Maximum altitude 04:26:07 58° 148° (SSE) 604 7.1 -20.8°
Drops below altitude 10° 04:30:06 10° 69° (ENE) 1,793 10.3 -20.1°
Sets 04:32:25 0° 66° (ENE) 2,721 11.3 -19.7°
